Sanford, ME

7:38 AM EDT on July 28, 2017 (GMT -0400)
Sanford Regional

Weather History for KSFM - February, 2013

Change the Weather History Date:

Tuesday, February 5, 2013

  Actual Average Record
Temperature  
Mean Temperature 14 °F -  
Max Temperature 26 °F 31 °F 53 °F (2006)
Min Temperature 3 °F 11 °F -16 °F (2009)
Degree Days  
Heating Degree Days 50    
Moisture  
Dew Point 2 °F    
Average Humidity 55    
Maximum Humidity 92    
Minimum Humidity 29    
Precipitation  
Precipitation 0.00 in - - ()
Sea Level Pressure  
Sea Level Pressure 29.95 in    
Wind  
Wind Speed 6 mph (WSW)    
Max Wind Speed 12 mph    
Max Gust Speed 17 mph    
Visibility 10 miles    
Events      
Averages and records for this station are not official NWS values.
T = Trace of Precipitation, MM = Missing Value Source: NWS Daily Summary

Daily Weather History Graph

Daily Weather History Graph

Search for Another Location

Airport or City:

Trip Planner

Search our weather history database for the weather conditions in past years. The results will help you decide how hot, cold, wet, or windy it might be!

Date:

Astronomy

Feb. 05, 2013 Rise Set
Actual Time 6:53 AM EST 5:00 PM EST
Civil Twilight 6:23 AM EST 5:30 PM EST
Nautical Twilight 5:50 AM EST 6:04 PM EST
Astronomical Twilight 5:16 AM EST 6:37 PM EST
Moon 2:35 AM EST (2/5) 12:11 PM EST (2/5)
Length of Visible Light 11h 06m
Length of Day
10h 06m
Waning Crescent, 27% of the Moon is Illuminated
Feb 5
Waning Crescent
Feb 10
New
Feb 17
First Quarter
Feb 25
Full
Mar 4
Last Quarter

Hourly Weather History & Observations

Time (EST) Temp. Windchill Dew Point Humidity Pressure Visibility Wind Dir Wind Speed Gust Speed Precip Events Conditions
12:15 AM 17.6 °F 5.0 °F -2.2 °F 42% 29.86 in 10.0 mi West 11.5 mph 16.1 mph N/A   Clear
12:35 AM 17.6 °F 6.4 °F -2.2 °F 42% 29.87 in 10.0 mi West 9.2 mph - N/A   Clear
12:55 AM 15.8 °F 4.2 °F -2.2 °F 45% 29.87 in 10.0 mi West 9.2 mph - N/A   Clear
1:15 AM 15.8 °F 3.4 °F -2.2 °F 45% 29.87 in 10.0 mi West 10.4 mph - N/A   Clear
1:35 AM 15.8 °F 5.1 °F -2.2 °F 45% 29.89 in 10.0 mi WSW 8.1 mph - N/A   Clear
1:55 AM 14.0 °F 3.9 °F -4.0 °F 45% 29.89 in 10.0 mi WSW 6.9 mph - N/A   Clear
2:15 AM 14.0 °F 5.1 °F -0.4 °F 53% 29.90 in 10.0 mi SW 5.8 mph - N/A   Clear
2:35 AM 14.0 °F 5.1 °F -2.2 °F 49% 29.90 in 10.0 mi West 5.8 mph - N/A   Clear
2:55 AM 12.2 °F 1.7 °F -2.2 °F 53% 29.90 in 10.0 mi WSW 6.9 mph - N/A   Clear
3:35 AM 12.2 °F 1.7 °F -2.2 °F 53% 29.91 in 10.0 mi West 6.9 mph - N/A   Clear
3:55 AM 12.2 °F 4.3 °F -0.4 °F 57% 29.91 in 10.0 mi WSW 4.6 mph - N/A   Clear
4:15 AM 12.2 °F 6.1 °F -2.2 °F 53% 29.92 in 10.0 mi SSE 3.5 mph - N/A   Clear
4:35 AM 8.6 °F 2.0 °F 1.4 °F 73% 29.92 in 10.0 mi South 3.5 mph - N/A   Clear
4:55 AM 10.4 °F 4.0 °F -2.2 °F 57% 29.92 in 10.0 mi WSW 3.5 mph - N/A   Clear
5:15 AM 8.6 °F - -0.4 °F 67% 29.93 in 10.0 mi Calm Calm - N/A   Clear
5:35 AM 6.8 °F -0.1 °F -0.4 °F 72% 29.94 in 10.0 mi SSW 3.5 mph - N/A   Clear
5:55 AM 6.8 °F - -2.2 °F 67% 29.94 in 10.0 mi Calm Calm - N/A   Clear
6:15 AM 6.8 °F -0.1 °F 1.4 °F 79% 29.94 in 10.0 mi West 3.5 mph - N/A   Clear
6:35 AM 3.2 °F -4.2 °F -5.8 °F 66% 29.95 in 10.0 mi WSW 3.5 mph - N/A   Clear
6:55 AM 3.2 °F - 1.4 °F 92% 29.96 in 10.0 mi Calm Calm - N/A   Clear
7:15 AM 3.2 °F -6.2 °F -2.2 °F 78% 29.97 in 10.0 mi West 4.6 mph - N/A   Clear
7:35 AM 8.6 °F -2.6 °F 5.0 °F 85% 29.97 in 10.0 mi WNW 6.9 mph - N/A   Clear
7:55 AM 12.2 °F 4.3 °F -2.2 °F 53% 29.98 in 10.0 mi West 4.6 mph - N/A   Clear
8:15 AM 12.2 °F 4.3 °F -0.4 °F 57% 29.99 in 10.0 mi WNW 4.6 mph - N/A   Clear
8:35 AM 12.2 °F 1.7 °F -0.4 °F 57% 29.99 in 10.0 mi West 6.9 mph - N/A   Clear
8:55 AM 12.2 °F 2.9 °F -2.2 °F 53% 30.00 in 10.0 mi West 5.8 mph - N/A   Clear
9:15 AM 15.8 °F 8.6 °F 1.4 °F 53% 30.00 in 10.0 mi WSW 4.6 mph - N/A   Clear
9:35 AM 17.6 °F 5.7 °F -0.4 °F 45% 30.00 in 10.0 mi West 10.4 mph - N/A   Clear
9:55 AM 19.4 °F 10.4 °F 1.4 °F 46% 30.00 in 10.0 mi West 6.9 mph 16.1 mph N/A   Clear
10:15 AM 19.4 °F 7.9 °F -0.4 °F 42% 30.00 in 10.0 mi West 10.4 mph - N/A   Clear
10:35 AM 19.4 °F 8.6 °F -0.4 °F 42% 30.00 in 10.0 mi West 9.2 mph - N/A   Clear
10:55 AM 21.2 °F 12.6 °F -0.4 °F 39% 30.00 in 10.0 mi West 6.9 mph - N/A   Clear
11:15 AM 19.4 °F 8.6 °F -0.4 °F 42% 30.00 in 10.0 mi West 9.2 mph - N/A   Clear
11:35 AM 21.2 °F 10.9 °F -0.4 °F 39% 29.99 in 10.0 mi WSW 9.2 mph - N/A   Clear
11:55 AM 21.2 °F 11.7 °F -0.4 °F 39% 29.98 in 10.0 mi WSW 8.1 mph - N/A   Clear
12:35 PM 24.8 °F 14.0 °F -0.4 °F 34% 29.96 in 10.0 mi West 11.5 mph - N/A   Clear
12:55 PM 24.8 °F 14.0 °F -2.2 °F 31% 29.96 in 10.0 mi West 11.5 mph 17.3 mph N/A   Clear
1:35 PM 26.6 °F 16.8 °F -2.2 °F 29% 29.95 in 10.0 mi West 10.4 mph - N/A   Clear
1:55 PM 26.6 °F 21.2 °F -0.4 °F 31% 29.95 in 10.0 mi WNW 4.6 mph - N/A   Clear
2:15 PM 24.8 °F 17.9 °F -0.4 °F 34% 29.95 in 10.0 mi South 5.8 mph - N/A   Clear
2:35 PM 26.6 °F 20.0 °F -0.4 °F 31% 29.95 in 10.0 mi South 5.8 mph - N/A   Clear
2:55 PM 26.6 °F 21.2 °F 1.4 °F 34% 29.96 in 10.0 mi SSW 4.6 mph - N/A   Clear
3:15 PM 24.8 °F 19.1 °F -2.2 °F 31% 29.95 in 10.0 mi SW 4.6 mph - N/A   Clear
3:35 PM 26.6 °F 21.2 °F -0.4 °F 31% 29.95 in 10.0 mi SSW 4.6 mph - N/A   Clear
3:55 PM 24.8 °F 19.1 °F 1.4 °F 36% 29.95 in 10.0 mi SSW 4.6 mph - N/A   Clear
4:15 PM 24.8 °F 20.5 °F -0.4 °F 34% 29.94 in 10.0 mi SSE 3.5 mph - N/A   Clear
4:35 PM 24.8 °F 19.1 °F 1.4 °F 36% 29.94 in 10.0 mi SSE 4.6 mph - N/A   Clear
4:55 PM 23.0 °F - 1.4 °F 39% 29.94 in 10.0 mi Calm Calm - N/A   Clear
5:15 PM 21.2 °F 16.4 °F -0.4 °F 39% 29.95 in 10.0 mi SSE 3.5 mph - N/A   Clear
5:35 PM 19.4 °F - 6.8 °F 58% 29.95 in 10.0 mi Calm Calm - N/A   Clear
6:15 PM 17.6 °F - 8.6 °F 68% 29.94 in 10.0 mi Calm Calm - N/A   Clear
6:35 PM 17.6 °F - 6.8 °F 63% 29.94 in 10.0 mi Calm Calm - N/A   Clear
6:55 PM 17.6 °F - 5.0 °F 58% 29.95 in 10.0 mi Calm Calm - N/A   Clear
7:15 PM 17.6 °F - 10.4 °F 73% 29.95 in 10.0 mi Calm Calm - N/A   Clear
7:35 PM 15.8 °F - 6.8 °F 68% 29.95 in 10.0 mi Calm Calm - N/A   Clear
7:55 PM 17.6 °F 12.3 °F 12.2 °F 79% 29.95 in 10.0 mi NNE 3.5 mph - N/A   Clear
8:15 PM 17.6 °F - 5.0 °F 58% 29.95 in 10.0 mi Calm Calm - N/A   Clear
8:35 PM 15.8 °F - 10.4 °F 79% 29.95 in 10.0 mi Calm Calm - N/A   Clear
8:55 PM 15.8 °F - 6.8 °F 68% 29.95 in 10.0 mi Calm Calm - N/A   Clear
9:15 PM 17.6 °F - 10.4 °F 73% 29.96 in 10.0 mi Calm Calm - N/A   Clear
9:35 PM 15.8 °F - 8.6 °F 73% 29.96 in 10.0 mi Calm Calm - N/A   Partly Cloudy
9:55 PM 15.8 °F - 10.4 °F 79% 29.96 in 10.0 mi Calm Calm - N/A   Partly Cloudy
10:15 PM 15.8 °F - 8.6 °F 73% 29.95 in 10.0 mi Calm Calm - N/A   Mostly Cloudy
10:35 PM 17.6 °F - 8.6 °F 68% 29.94 in 10.0 mi Calm Calm - N/A   Overcast
10:55 PM 17.6 °F - 5.0 °F 58% 29.94 in 10.0 mi Calm Calm - N/A   Overcast
11:15 PM 17.6 °F - 12.2 °F 79% 29.94 in 10.0 mi Calm Calm - N/A   Overcast
11:35 PM 17.6 °F - 6.8 °F 63% 29.94 in 10.0 mi Calm Calm - N/A   Overcast
11:55 PM 17.6 °F - 12.2 °F 79% 29.94 in 10.0 mi Calm Calm - N/A   Overcast